| time (UTC) | temp F | wind direction | speed knots | gust knots | rain 1hr in | rain 24hr in | rain mn in | humidity % | barometer mb |
| 20260507211510 | 51 | 138 | 0.0 | 0.0 | 0.00 | 0.08 | 0.08 | 84 | 1017.1 |
| 20260507210008 | 51 | 138 | 0.0 | 1.7 | 0.00 | 0.09 | 0.08 | 85 | 1016.9 |
| 20260507204507 | 52 | 138 | 0.0 | 0.0 | 0.00 | 0.09 | 0.08 | 83 | 1016.7 |
| 20260507203006 | 52 | 138 | 0.0 | 0.0 | 0.00 | 0.09 | 0.08 | 82 | 1016.6 |
| 20260507201506 | 54 | 138 | 0.0 | 0.9 | 0.00 | 0.09 | 0.08 | 77 | 1016.7 |
| 20260507200004 | 55 | 138 | 0.0 | 1.7 | 0.00 | 0.09 | 0.08 | 75 | 1016.4 |
| 20260507194501 | 56 | 275 | 0.0 | 1.7 | 0.00 | 0.09 | 0.08 | 73 | 1016.0 |
| 20260507193059 | 57 | 275 | 0.0 | 1.7 | 0.00 | 0.09 | 0.08 | 74 | 1015.7 |
| 20260507191558 | 57 | 183 | 0.0 | 3.5 | 0.00 | 0.09 | 0.08 | 76 | 1015.2 |
| 20260507190055 | 58 | 227 | 0.0 | 0.0 | 0.00 | 0.09 | 0.08 | 77 | 1015.0 |
| 20260507184552 | 59 | 232 | 0.9 | 4.3 | 0.00 | 0.09 | 0.08 | 77 | 1014.7 |
| 20260507183052 | 59 | 227 | 0.0 | 4.3 | 0.00 | 0.09 | 0.08 | 76 | 1014.5 |
| 20260507181550 | 61 | 184 | 0.9 | 4.3 | 0.00 | 0.09 | 0.08 | 75 | 1014.4 |
| 20260507180057 | 61 | 225 | 0.0 | 6.1 | 0.00 | 0.09 | 0.08 | 73 | 1014.4 |
| 20260507174603 | 62 | 279 | 1.7 | 4.3 | 0.00 | 0.09 | 0.08 | 73 | 1014.3 |
| 20260507173050 | 63 | 173 | 0.0 | 6.1 | 0.00 | 0.09 | 0.08 | 71 | 1014.1 |
| 20260507171652 | 63 | 209 | 0.9 | 7.0 | 0.00 | 0.09 | 0.08 | 69 | 1014.1 |
| 20260507170048 | 64 | 5 | 1.7 | 8.7 | 0.00 | 0.09 | 0.08 | 68 | 1013.6 |
| 20260507164550 | 65 | 175 | 2.6 | 7.0 | 0.00 | 0.09 | 0.08 | 66 | 1013.5 |
| 20260507163050 | 67 | 234 | 0.9 | 7.0 | 0.00 | 0.09 | 0.08 | 64 | 1013.4 |
| 20260507161547 | 67 | 207 | 4.3 | 10.4 | 0.00 | 0.09 | 0.08 | 63 | 1013.4 |
| 20260507160052 | 68 | 221 | 1.7 | 9.6 | 0.00 | 0.09 | 0.08 | 63 | 1013.3 |
| 20260507154545 | 69 | 246 | 3.5 | 11.3 | 0.00 | 0.09 | 0.08 | 60 | 1013.2 |
| 20260507153046 | 70 | 251 | 4.3 | 11.3 | 0.00 | 0.09 | 0.08 | 57 | 1012.7 |
| 20260507151547 | 71 | 205 | 3.5 | 12.2 | 0.00 | 0.09 | 0.08 | 55 | 1012.7 |
| 20260507150043 | 71 | 292 | 3.5 | 7.8 | 0.00 | 0.09 | 0.08 | 55 | 1012.5 |
| 20260507144542 | 71 | 213 | 1.7 | 9.6 | 0.00 | 0.09 | 0.08 | 53 | 1012.5 |
| 20260507143048 | 72 | 260 | 2.6 | 9.6 | 0.00 | 0.09 | 0.08 | 51 | 1012.6 |
| 20260507141545 | 73 | 219 | 1.7 | 8.7 | 0.00 | 0.09 | 0.08 | 49 | 1012.4 |
| 20260507140043 | 72 | 312 | 4.3 | 9.6 | 0.00 | 0.09 | 0.08 | 49 | 1012.3 |
| 20260507134540 | 72 | 221 | 2.6 | 9.6 | 0.00 | 0.09 | 0.08 | 51 | 1012.4 |
| 20260507133039 | 72 | 253 | 3.5 | 7.8 | 0.00 | 0.09 | 0.08 | 50 | 1012.6 |
| 20260507131538 | 72 | 217 | 2.6 | 8.7 | 0.00 | 0.09 | 0.08 | 47 | 1012.7 |
| 20260507130044 | 72 | 183 | 2.6 | 7.8 | 0.00 | 0.09 | 0.08 | 50 | 1012.8 |
| 20260507124551 | 72 | 216 | 0.9 | 8.7 | 0.00 | 0.09 | 0.08 | 49 | 1012.9 |
| 20260507123035 | 72 | 213 | 2.6 | 6.1 | 0.00 | 0.09 | 0.08 | 49 | 1012.9 |
| 20260507121536 | 71 | 270 | 2.6 | 7.8 | 0.00 | 0.09 | 0.08 | 52 | 1013.1 |
| 20260507120032 | 69 | 296 | 0.0 | 1.7 | 0.00 | 0.10 | 0.08 | 55 | 1013.2 |
| 20260507114531 | 71 | 208 | 0.9 | 5.2 | 0.00 | 0.10 | 0.08 | 50 | 1013.2 |
| 20260507113030 | 72 | 220 | 3.5 | 7.8 | 0.00 | 0.10 | 0.08 | 56 | 1013.4 |
| 20260507111527 | 70 | 198 | 1.7 | 7.0 | 0.00 | 0.10 | 0.08 | 55 | 1013.7 |
| 20260507110029 | 69 | 207 | 2.6 | 7.8 | 0.00 | 0.11 | 0.08 | 59 | 1014.0 |
| 20260507104525 | 68 | 132 | 0.9 | 5.2 | 0.00 | 0.11 | 0.08 | 59 | 1013.9 |
| 20260507103022 | 68 | 109 | 0.9 | 5.2 | 0.00 | 0.11 | 0.08 | 60 | 1014.1 |
| 20260507101519 | 67 | 144 | 2.6 | 5.2 | 0.00 | 0.11 | 0.08 | 63 | 1014.1 |
| 20260507100023 | 67 | 248 | 1.7 | 6.1 | 0.00 | 0.12 | 0.08 | 67 | 1014.2 |
| 20260507094517 | 66 | 96 | 1.7 | 4.3 | 0.00 | 0.12 | 0.08 | 69 | 1014.2 |
| 20260507093024 | 68 | 199 | 0.9 | 5.2 | 0.00 | 0.12 | 0.08 | 71 | 1014.3 |
| 20260507091521 | 66 | 130 | 1.7 | 5.2 | 0.00 | 0.12 | 0.08 | 72 | 1014.3 |
| 20260507090011 | 65 | 128 | 2.6 | 5.2 | 0.00 | 0.13 | 0.08 | 74 | 1014.3 |
| 20260507084515 | 63 | 84 | 0.9 | 4.3 | 0.00 | 0.13 | 0.08 | 76 | 1014.4 |
| 20260507083009 | 64 | 63 | 1.7 | 4.3 | 0.00 | 0.13 | 0.08 | 77 | 1014.3 |
| 20260507081506 | 63 | 122 | 0.9 | 3.5 | 0.01 | 0.13 | 0.08 | 80 | 1014.3 |
| 20260507080103 | 61 | 180 | 1.7 | 3.5 | 0.01 | 0.13 | 0.08 | 81 | 1014.3 |
| 20260507074615 | 61 | 107 | 0.0 | 4.3 | 0.01 | 0.13 | 0.08 | 84 | 1014.3 |
| 20260507073058 | 59 | 80 | 0.9 | 4.3 | 0.01 | 0.13 | 0.08 | 86 | 1014.3 |
| 20260507071556 | 58 | 221 | 0.0 | 0.0 | 0.00 | 0.13 | 0.07 | 91 | 1014.3 |
| 20260507070106 | 56 | 128 | 0.0 | 0.0 | 0.00 | 0.13 | 0.07 | 92 | 1014.2 |
| 20260507064559 | 56 | 128 | 0.0 | 0.0 | 0.00 | 0.13 | 0.07 | 94 | 1014.2 |
| 20260507063057 | 55 | 128 | 0.0 | 0.0 | 0.00 | 0.13 | 0.07 | 96 | 1014.2 |
| 20260507061551 | 54 | 53 | 0.0 | 1.7 | 0.00 | 0.13 | 0.07 | 96 | 1014.1 |
| 20260507060049 | 53 | 343 | 0.0 | 3.5 | 0.00 | 0.13 | 0.07 | 97 | 1013.9 |
| 20260507054553 | 52 | 177 | 0.0 | 0.0 | 0.00 | 0.13 | 0.07 | 97 | 1014.0 |
| 20260507053048 | 52 | 177 | 0.0 | 0.0 | 0.00 | 0.13 | 0.07 | 97 | 1013.7 |
| 20260507051547 | 51 | 177 | 0.0 | 0.0 | 0.00 | 0.13 | 0.07 | 97 | 1013.7 |
| 20260507050046 | 51 | 177 | 0.0 | 0.0 | 0.00 | 0.13 | 0.07 | 97 | 1013.4 |
| 20260507044545 | 51 | 177 | 0.0 | 0.0 | 0.00 | 0.13 | 0.07 | 96 | 1013.4 |
| 20260507043044 | 51 | 177 | 0.0 | 0.0 | 0.00 | 0.13 | 0.07 | 97 | 1013.1 |
| 20260507041544 | 50 | 177 | 0.0 | 0.0 | 0.00 | 0.13 | 0.07 | 96 | 1012.9 |
| 20260507040041 | 51 | 173 | 0.0 | 0.0 | 0.00 | 0.13 | 0.07 | 96 | 1012.9 |
| 20260507034542 | 50 | 173 | 0.0 | 0.0 | 0.00 | 0.13 | 0.07 | 96 | 1012.8 |
| 20260507033044 | 51 | 173 | 0.0 | 0.0 | 0.00 | 0.13 | 0.07 | 96 | 1012.9 |
| 20260507031539 | 51 | 173 | 0.0 | 0.0 | 0.00 | 0.13 | 0.07 | 96 | 1012.7 |
| 20260507030041 | 51 | 291 | 0.0 | 0.0 | 0.00 | 0.13 | 0.07 | 95 | 1012.8 |
| 20260507024538 | 51 | 251 | 0.0 | 0.0 | 0.00 | 0.13 | 0.07 | 95 | 1012.7 |
| 20260507023035 | 51 | 251 | 0.0 | 0.0 | 0.00 | 0.13 | 0.07 | 95 | 1012.6 |
| 20260507021534 | 51 | 251 | 0.0 | 0.0 | 0.00 | 0.13 | 0.07 | 95 | 1012.6 |
| 20260507020041 | 52 | 251 | 0.0 | 0.0 | 0.00 | 0.13 | 0.07 | 95 | 1012.6 |
| 20260507014532 | 52 | 251 | 0.0 | 0.9 | 0.00 | 0.13 | 0.07 | 95 | 1012.7 |
| 20260507013046 | 52 | 251 | 0.0 | 1.7 | 0.00 | 0.13 | 0.07 | 95 | 1012.7 |
| 20260507011531 | 52 | 250 | 0.0 | 0.0 | 0.00 | 0.13 | 0.07 | 94 | 1012.6 |
| 20260507010035 | 53 | 250 | 0.0 | 0.0 | 0.00 | 0.13 | 0.07 | 94 | 1012.6 |
| 20260507004528 | 53 | 250 | 0.0 | 4.3 | 0.00 | 0.13 | 0.07 | 94 | 1012.7 |
| 20260507003028 | 53 | 299 | 0.0 | 1.7 | 0.00 | 0.13 | 0.07 | 94 | 1012.7 |
| 20260507001530 | 52 | 300 | 0.0 | 3.5 | 0.00 | 0.13 | 0.07 | 94 | 1012.7 |
| 20260507000026 | 52 | 309 | 0.9 | 4.3 | 0.00 | 0.13 | 0.07 | 94 | 1012.8 |
| 20260506234531 | 53 | 246 | 0.9 | 4.3 | 0.04 | 0.13 | 0.07 | 94 | 1012.8 |
| 20260506233023 | 53 | 196 | 0.0 | 1.7 | 0.06 | 0.13 | 0.07 | 94 | 1013.0 |
| 20260506231526 | 54 | 355 | 0.0 | 0.9 | 0.07 | 0.13 | 0.07 | 93 | 1012.8 |
| 20260506230021 | 54 | 360 | 0.0 | 3.5 | 0.07 | 0.13 | 0.07 | 92 | 1012.9 |
| 20260506224517 | 55 | 355 | 0.0 | 1.7 | 0.03 | 0.09 | 0.03 | 91 | 1013.3 |
| 20260506223012 | 55 | 298 | 0.9 | 5.2 | 0.01 | 0.06 | 0.01 | 87 | 1013.0 |
| 20260506221510 | 56 | 265 | 2.6 | 7.8 | 0.00 | 0.06 | 0.00 | 86 | 1012.9 |
| 20260506220015 | 56 | 239 | 2.6 | 5.2 | 0.00 | 0.06 | 0.06 | 86 | 1012.7 |
| 20260506214509 | 56 | 209 | 0.0 | 4.3 | 0.00 | 0.06 | 0.06 | 87 | 1012.6 |
| 20260506213006 | 56 | 223 | 0.0 | 5.2 | 0.01 | 0.06 | 0.06 | 87 | 1012.6 |